Date,TemperatureHighF,TemperatureAvgF,TemperatureLowF,DewpointHighF,DewpointAvgF,DewpointLowF,HumidityHigh,HumidityAvg,HumidityLow,PressureMaxIn,PressureMinIn,WindSpeedMaxMPH,WindSpeedAvgMPH,GustSpeedMaxMPH,PrecipitationSumIn
2013-1-1,50,44,39,25,18,9,43,35,27,29.50,29.36,6,1,8,0.09
2013-1-2,44,38,33,24,20,14,56,50,40,29.71,29.47,3,0,4,0.09
2013-1-3,44,35,30,14,11,7,48,37,25,29.74,29.59,3,0,4,0.09
2013-1-4,54,38,28,12,6,0,43,28,15,29.71,29.59,6,2,10,0.09
2013-1-5,56,41,28,17,7,-1,40,25,13,29.86,29.65,3,0,4,0.09
2013-1-6,58,43,34,27,17,9,65,39,17,29.68,29.50,6,1,8,0.09
2013-1-7,57,43,29,19,14,7,60,32,17,29.92,29.62,4,0,6,0.09
2013-1-8,56,38,27,27,21,15,80,53,27,29.92,29.62,3,0,4,0.09
2013-1-9,60,46,29,38,32,22,93,62,36,29.86,29.71,7,1,8,0.09
2013-1-10,69,49,34,28,15,7,54,28,12,30.04,29.86,3,0,4,0.09
2013-1-11,43,41,36,42,28,18,98,62,40,29.95,29.59,3,0,3,0.09
2013-1-12,61,47,38,53,43,25,98,90,48,29.65,29.56,2,0,3,0.09
2013-1-13,67,54,46,66,53,45,98,96,86,29.62,29.47,2,0,4,0.09
2013-1-14,62,56,42,61,53,41,98,92,80,29.77,29.47,3,0,8,0.09
2013-1-15,41,39,37,41,38,37,98,98,98,29.83,29.68,2,0,5,0.09
2013-1-16,43,40,36,43,39,35,98,98,98,29.71,29.36,3,0,6,0.09
2013-1-17,44,39,33,43,38,33,98,98,98,29.62,29.44,2,0,4,0.09
2013-1-18,53,37,29,34,20,0,98,59,14,29.98,29.59,4,1,6,0.09
2013-1-19,58,41,29,23,19,14,71,45,19,29.92,29.50,3,1,6,0.09
2013-1-20,65,47,36,21,11,-2,50,27,10,29.56,29.36,10,2,13,0.09
2013-1-21,58,41,29,10,1,-9,40,19,12,29.59,29.27,9,1,17,0.09
2013-1-22,35,25,18,-7,-13,-17,18,16,15,29.77,29.44,6,1,10,0.09
2013-1-23,37,23,10,4,-10,-18,49,22,14,29.80,29.59,6,1,8,0.09
2013-1-24,32,22,14,12,-2,-14,69,39,16,30.04,29.53,6,1,12,0.09
2013-1-25,24,19,11,10,1,-9,59,45,29,29.98,29.56,3,1,6,0.09
2013-1-26,45,29,21,18,12,9,67,51,30,29.92,29.53,3,0,5,0.09
2013-1-27,46,31,20,21,13,8,74,50,25,30.06,29.89,5,1,7,0.09
2013-1-28,51,40,31,39,28,13,98,66,44,29.95,29.59,5,1,6,0.09
2013-1-29,80,58,43,45,39,35,88,56,22,29.62,29.47,3,1,4,0.09
2013-1-30,70,62,57,63,54,41,98,77,53,29.47,28.71,8,1,11,0.09
2013-1-31,60,43,33,60,11,-4,98,31,14,29.42,28.77,12,4,17,0.00
2013-2-1,35,28,21,20,-5,-14,65,23,15,29.86,29.27,10,2,17,0.00
2013-2-2,35,26,18,22,4,-13,79,42,20,29.86,29.47,4,0,6,0.00
2013-2-3,45,32,25,29,17,0,88,59,25,29.47,29.30,8,1,11,0.00
2013-2-4,37,32,23,9,4,-2,44,31,22,29.59,29.36,5,1,8,0.00
2013-2-5,62,43,32,22,15,8,47,34,17,29.39,29.33,9,1,14,0.00
2013-2-6,60,41,28,32,16,3,91,44,13,29.80,29.39,6,1,8,0.00
2013-2-7,40,36,31,20,16,12,59,44,33,29.92,29.62,4,0,5,0.00
2013-2-8,56,40,32,45,27,9,98,68,29,29.62,29.24,7,1,13,0.00
2013-2-9,52,39,27,9,1,-7,32,21,13,29.86,29.47,6,2,13,0.00
2013-2-10,50,34,20,15,5,0,59,32,14,29.98,29.71,4,0,6,0.00
2013-2-11,58,47,35,50,35,4,98,70,12,29.71,29.27,11,1,18,0.00
2013-2-12,68,52,44,12,6,2,25,15,10,29.47,29.33,8,2,13,0.00
2013-2-13,45,39,34,37,23,11,98,56,25,29.42,29.12,4,0,5,0.00
2013-2-14,60,41,28,39,19,3,98,56,12,29.53,29.27,5,1,6,0.00
2013-2-15,66,46,29,32,19,8,72,40,13,29.53,29.36,6,1,6,0.00
2013-2-16,41,37,30,36,21,-1,90,57,25,29.50,29.33,4,1,7,0.00
2013-2-17,36,28,23,2,-7,-13,33,21,15,29.71,29.36,8,3,14,0.00
2013-2-18,52,34,18,6,-2,-12,36,21,13,29.86,29.65,5,1,8,0.00
2013-2-19,48,39,35,41,22,2,95,55,20,29.65,29.27,10,2,13,0.00
2013-2-20,51,38,30,4,-2,-8,25,18,14,29.62,29.39,8,2,10,0.00
2013-2-21,50,35,24,5,0,-6,42,23,14,29.80,29.59,4,1,7,0.00
2013-2-22,39,35,32,17,11,1,47,37,25,29.86,29.68,3,1,5,0.00
2013-2-23,56,41,34,35,29,17,85,65,37,29.68,29.30,3,0,5,0.00
2013-2-24,64,46,36,46,22,-1,98,54,11,29.59,29.30,7,2,10,0.00
2013-2-25,50,36,26,10,5,-2,43,28,16,29.71,29.59,4,1,7,0.00
2013-2-26,41,33,26,41,25,8,98,74,42,29.71,29.09,4,1,7,0.00
2013-2-27,61,47,37,48,28,13,98,58,17,29.24,29.06,8,2,12,0.00
2013-2-28,48,42,39,21,15,8,41,33,22,29.27,29.12,8,3,13,0.00
2013-3-1,42,39,36,39,15,11,98,38,29,29.36,29.15,4,1,6,0.00
2013-3-11,47,43,39,39,28,16,98,64,29,29.33,29.15,0,0,0,0.00